CAPE
1732 1739 1787 1671 1483 1552 1518 1518 1490 1472 1452 1361 1299 1318 1274 1211 1157 1109 1065 1021 1106 1188 1254 1320 1479 1660 1792 1892 1964 1927 1833 1730 1668 1646 1589 1486 1408 1346 1272 1311 1262 1213
1720 1808 1794 1718 1613 1617 1606 1547 1501 1454 1419 1355 1310 1217 1244 1226 1220 1190 1137 1156 1250 1281 1335 1391 1489 1623 1781 1924 2001 1999 1902 1792 1691 1671 1614 1462 1431 1354 1297 1303 1290 1234
1819 1835 1896 1856 1751 1666 1609 1577 1537 1462 1411 1344 1287 1218 1165 1103 1128 1114 1106 1262 1508 1489 1476 1515 1613 1714 1834 1982 2077 2070 1982 1850 1696 1592 1544 1513 1453 1347 1319 1298 1272 1248
1801 1897 1972 1941 1824 1734 1626 1563 1516 1475 1418 1362 1296 1242 1170 1110 1038 1125 1098 1366 1632 1804 1811 1802 1773 1860 1973 2082 2138 2117 2058 1905 1736 1608 1580 1495 1354 1422 1484 1453 1380 1333
1837 2001 2064 2007 1910 1756 1680 1611 1531 1468 1426 1383 1335 1286 1227 1154 1148 1136 1125 1182 1479 1881 2040 2057 2012 1977 2074 2177 2212 2160 2072 1926 1785 1612 1498 1441 1314 1186 1335 1390 1407 1392
1851 1952 2061 2093 1981 1870 1773 1698 1596 1498 1469 1430 1382 1321 1236 1187 1208 1226 1223 1259 1360 1694 1984 2133 2187 2154 2186 2248 2252 2181 2062 1876 1778 1718 1682 1640 1530 1404 1411 1421 1371 1343
1738 1817 1992 2050 1933 1873 1844 1782 1691 1594 1475 1429 1374 1310 1266 1233 1235 1299 1361 1343 1455 1607 1847 2082 2229 2281 2236 2258 2212 2147 1995 1829 1793 1800 1855 1801 1608 1485 1411 1320 1244 1154
1642 1891 1995 1965 2026 1975 1905 1833 1730 1714 1589 1478 1419 1368 1397 1315 1273 1344 1494 1478 1568 1637 1773 1994 2223 2339 2359 2278 2238 2137 1928 1904 1984 1954 1868 1718 1621 1530 1422 1305 1204 1121
1678 1924 2046 2044 2080 2076 2026 1930 1814 1744 1678 1572 1467 1390 1545 1521 1468 1505 1616 1677 1714 1768 1886 2070 2284 2405 2370 2410 2326 2149 1977 1946 1876 1814 1750 1637 1512 1327 1231 1173 1167 1245
1821 1968 1928 2054 2090 2089 2064 1991 1889 1811 1722 1631 1569 1658 1654 1689 1687 1710 1821 1867 1918 1967 2083 2221 2359 2463 2394 2373 2291 2142 2012 1937 1870 1780 1633 1336 1246 1194 1210 1220 1275 1214
1758 1609 1882 2027 2052 2061 2053 1983 1934 1853 1767 1693 1710 1862 1874 1862 1879 1888 1967 2059 2090 2175 2270 2378 2468 2414 2366 2293 2185 2061 1983 1827 1553 1390 1345 1291 1278 1423 1387 1255 1169 1040
1688 1632 1875 2020 1986 2014 2026 1998 1928 1983 2004 1860 1830 1997 2099 2093 2139 2133 2135 2197 2278 2343 2433 2456 2422 2390 2297 2207 2003 1858 1560 1325 1385 1354 1345 1406 1455 1372 1224 1144 1074 950
1477 1599 2030 2007 1978 1956 1974 1984 1948 2097 2250 2134 2018 2146 2310 2337 2310 2305 2298 2320 2354 2412 2439 2431 2360 2274 2184 1966 1734 1353 1375 1390 1421 1465 1520 1502 1370 1164 1063 1034 958 797
1719 2043 2063 2033 1992 1950 1945 2001 1985 2108 2331 2363 2291 2353 2445 2468 2396 2360 2393 2401 2401 2401 2420 2363 2341 2216 1978 1653 1490 1545 1568 1567 1520 1593 1574 1416 1255 1038 869 841 629 448
2395 2327 2200 2124 2056 2006 1957 1927 1933 2023 2284 2371 2392 2403 2465 2506 2453 2407 2455 2457 2412 2366 2418 2414 2240 1993 1743 1466 1588 1637 1630 1630 1638 1597 1454 1283 1081 836 694 585 561 475
2299 2354 2333 2220 2096 2013 1973 1956 1929 1937 2173 2313 2409 2458 2503 2490 2430 2340 2366 2456 2497 2366 2268 2224 2002 1759 1680 1697 1670 1654 1670 1633 1555 1407 1205 994 729 169 0 78 216 176
2210 2266 2272 2229 2152 2014 1938 1911 1925 1935 2008 2228 2299 2424 2516 2341 2257 2340 2380 2188 2137 2227 2312 2125 1923 1778 1734 1694 1632 1585 1497 1465 1415 1231 1014 911 716 502 386 253 14 16
2121 2119 2081 2143 2165 2144 2049 1941 1876 1820 1868 2122 2244 2332 2451 2334 2149 2279 2276 1983 1821 1974 2138 2002 1772 1643 1553 1536 1503 1446 1395 1321 1165 1124 1095 990 804 539 204 22 2 58
1666 1838 1872 1912 2001 2111 2109 1946 1890 1774 1750 2072 2226 2353 2146 2182 2276 2222 2097 1736 1744 1952 1931 1818 1684 1644 1427 1443 1430 1418 1269 1185 1149 1127 1050 948 670 384 67 0 5 9
1405 1531 1618 1730 1858 2040 2065 1906 1802 1574 1617 1943 2188 2255 2084 1945 2233 2085 1945 1933 1856 1754 1737 1752 1673 1529 1387 1384 1364 1353 1268 974 852 737 647 531 122 0 0 1 6 7
1634 1693 1714 1825 1956 2062 2069 1996 1849 1551 1513 1743 1946 2046 1935 2001 2125 2042 2012 1965 1846 1726 1543 1614 1587 1540 1519 1481 1410 1196 850 577 431 333 366 116 0 0 0 6 4 2
1608 1841 1821 1930 2062 2164 2122 2081 1942 1745 1556 1738 1862 1932 1877 1813 1688 1822 1944 1792 1617 1681 1529 1674 1666 1678 1606 1393 1126 656 437 48 0 69 0 0 0 0 0 0 0 0
1545 1852 1927 1932 2034 2092 2108 2010 1836 1662 1520 1761 1897 1933 1901 1821 1869 1965 1894 1808 1595 1461 1571 1695 1674 1510 1236 971 638 456 408 0 0 0 0 0 0 0 0 0 0 0
1586 1758 1880 1969 2004 2068 2134 2118 1893 1483 1535 1787 1920 1965 1834 1805 1665 1871 1765 1598 1628 1436 1488 1563 1396 1122 913 650 521 439 145 0 0 0 0 0 0 0 0 0 0 0
1591 1590 1738 1864 1966 2004 2025 2109 1885 1470 1532 1723 1881 1912 1755 1379 1717 1778 1646 1408 1417 1533 1428 1286 1088 926 766 574 488 388 0 108 0 0 0 0 0 0 0 0 0 0
1297 1602 1776 1838 1896 1981 1953 2096 1858 1596 1592 1725 1823 1686 1332 1406 1880 1797 1521 1392 1299 1282 1248 1182 1048 824 672 490 86 0 118 240 0 0 0 0 0 0 0 0 0 0
Wind_Speed
34 34 33 32 28 26 25 26 25 24 21 20 18 17 18 19 20 20 19 19 18 18 19 19 20 22 23 23 22 20 17 15 15 17 19 20 19 21 22 23 25 26
35 34 34 34 30 28 26 25 24 24 22 20 19 18 18 19 19 20 18 19 18 17 18 19 20 22 24 24 22 21 16 15 17 18 19 18 18 20 22 24 26 26
36 34 32 30 27 25 24 25 25 24 22 21 19 18 18 19 20 17 18 19 18 17 17 18 20 22 23 23 24 21 16 18 21 18 20 19 20 21 20 22 24 26
35 32 30 31 29 26 26 26 25 23 23 21 18 17 18 19 18 17 17 18 18 18 17 18 20 21 22 23 24 20 17 20 22 20 20 19 21 22 21 23 24 25
33 33 33 33 30 28 28 25 23 23 21 20 18 18 19 19 18 16 17 17 18 18 18 19 20 21 22 23 23 20 17 21 23 21 19 17 18 20 20 23 24 24
39 37 35 34 31 28 26 23 23 22 21 19 17 18 19 19 17 16 16 17 17 18 19 20 20 21 22 23 23 21 19 21 23 22 20 18 17 20 21 21 23 23
39 38 36 36 33 29 26 23 23 21 20 19 20 18 19 18 17 17 16 17 17 18 19 20 20 21 21 23 23 21 19 20 22 23 21 18 19 20 21 21 21 20
39 39 37 38 33 30 26 23 22 20 20 21 19 19 19 18 18 17 17 17 18 18 19 19 20 21 22 23 23 22 21 20 20 21 21 21 21 22 23 22 21 19
44 41 39 37 31 28 24 22 22 20 21 20 20 20 19 19 18 18 17 17 18 19 19 19 21 22 23 23 23 24 23 21 20 21 21 22 21 21 23 23 22 20
44 41 41 36 28 26 23 22 22 22 22 21 20 20 19 18 19 18 18 18 19 20 20 21 22 23 24 23 25 25 24 22 21 20 21 21 22 22 24 24 22 21
43 41 37 31 27 26 23 23 24 23 22 21 21 20 19 20 18 18 18 18 20 21 21 23 24 25 24 23 24 24 24 24 22 21 21 22 23 23 25 25 23 22
38 37 32 28 26 26 24 24 24 23 22 22 21 20 20 19 18 17 18 19 20 22 23 24 25 25 24 25 24 23 23 24 23 22 22 23 23 24 25 25 24 22
33 29 28 27 27 27 26 25 24 23 23 22 21 21 21 19 18 18 18 19 21 23 23 24 26 25 25 24 23 22 23 25 25 24 24 24 24 25 25 24 24 24
29 28 28 29 29 28 27 25 24 24 22 22 21 20 20 19 18 18 19 21 22 23 23 24 25 25 24 24 23 24 26 26 27 27 27 25 25 26 26 25 24 23
27 29 31 31 30 28 26 24 23 23 22 20 19 19 19 19 19 20 21 22 25 22 21 23 25 24 24 25 26 26 26 27 28 28 28 28 27 28 28 28 28 25
32 32 33 32 29 27 24 23 23 22 20 19 18 19 19 19 20 21 23 23 24 23 22 25 25 26 26 31 30 28 27 26 26 26 27 27 29 30 nan nan 29 27
34 34 33 30 28 27 26 24 22 21 19 18 18 18 19 21 24 25 24 24 23 23 26 27 28 28 32 35 35 34 29 27 28 27 26 27 27 30 31 31 nan nan
32 33 32 31 29 27 26 23 21 19 18 18 18 18 21 25 21 23 27 26 23 24 27 28 28 29 35 35 34 34 31 28 27 27 26 27 28 30 31 nan nan nan
33 33 32 32 30 29 26 23 20 18 18 18 16 20 23 19 22 25 25 27 26 27 28 28 28 28 36 36 33 32 34 32 27 26 27 28 29 30 nan nan nan nan
37 34 31 32 32 30 26 22 19 17 18 18 18 20 19 20 23 23 24 27 28 28 28 28 29 28 36 37 34 33 33 30 27 27 27 30 30 nan nan nan nan nan
36 34 32 32 33 30 25 21 20 19 19 18 17 18 21 21 23 23 24 27 27 28 30 29 27 31 35 37 34 32 31 29 27 26 28 31 nan nan nan nan nan nan
34 35 32 32 32 29 24 21 20 19 18 18 19 23 24 25 27 26 26 25 25 30 31 29 28 30 32 32 30 28 29 nan nan nan nan nan nan nan nan nan nan nan
34 34 32 30 30 27 23 22 21 19 19 19 21 22 23 24 25 24 24 27 27 29 32 29 28 27 29 26 25 26 28 nan nan nan nan nan nan nan nan nan nan nan
34 33 30 28 27 24 24 24 22 20 18 18 20 21 23 27 26 24 25 24 28 29 30 31 28 28 27 25 21 23 26 nan nan nan nan nan nan nan nan nan nan nan
32 32 28 24 24 26 26 24 21 18 18 19 20 21 27 27 25 25 25 24 27 31 33 33 30 28 28 25 19 20 nan 28 nan nan nan nan nan nan nan nan nan nan
28 27 24 22 25 27 26 24 22 21 19 20 20 24 28 27 26 25 27 27 29 32 31 31 32 30 28 26 nan nan 25 28 nan nan nan nan nan nan nan nan nan nan
Wind_Direction
221 222 222 222 216 209 215 224 233 245 251 259 271 278 285 287 295 299 293 284 286 291 295 300 301 300 298 296 297 301 311 322 320 310 314 318 323 326 330 331 330 332
210 215 222 220 214 210 214 224 234 243 253 260 268 275 279 289 295 295 286 282 285 293 298 302 303 301 299 297 297 305 313 316 304 295 309 314 317 326 333 334 334 329
208 208 220 221 216 212 215 223 234 242 253 261 267 276 284 288 292 288 281 281 285 291 297 301 302 301 299 298 296 303 310 302 297 300 298 301 306 315 322 327 324 327
209 204 215 221 218 215 217 225 231 242 251 261 271 276 282 286 286 285 279 281 282 287 293 296 299 298 298 296 295 301 307 299 300 303 300 304 310 314 323 327 325 326
212 204 212 220 217 217 221 226 236 244 254 264 269 273 281 285 284 283 282 281 281 284 288 293 293 295 295 294 298 304 307 304 303 305 307 313 316 314 323 324 325 327
207 204 213 218 218 221 223 228 237 246 256 262 272 274 281 284 281 281 281 281 282 284 286 288 291 292 294 294 298 304 309 308 306 307 311 320 321 320 322 323 324 328
206 206 213 215 218 220 223 229 236 246 256 262 263 273 280 283 281 279 278 280 282 283 285 287 290 291 292 294 299 305 307 307 305 310 314 320 319 321 323 324 326 328
203 206 212 214 217 219 224 232 238 248 255 257 268 274 278 283 281 274 273 278 279 281 283 287 290 292 290 292 299 303 305 302 307 311 312 316 319 321 322 325 325 332
201 203 209 212 216 220 226 233 239 248 253 262 269 273 277 279 276 275 276 278 279 279 282 285 288 288 287 292 299 302 304 305 310 311 312 316 319 320 320 319 323 332
198 200 206 209 214 221 229 235 241 248 253 262 270 273 280 274 272 276 277 281 281 278 280 281 282 282 287 294 299 301 306 311 312 311 310 313 316 316 317 319 327 330
192 196 203 207 213 220 230 237 242 250 256 265 270 277 277 272 269 274 279 281 281 277 278 279 280 283 288 291 294 300 308 310 311 310 307 309 313 316 317 320 325 332
191 191 198 206 214 221 231 237 242 250 258 263 274 276 273 270 272 273 278 281 278 278 280 281 283 286 289 292 296 300 305 309 310 310 308 308 311 312 313 317 324 326
192 190 200 209 215 222 228 233 241 249 257 266 272 274 272 270 271 277 277 281 277 279 282 284 287 288 289 293 297 303 306 302 301 301 301 304 306 306 307 310 312 317
187 197 206 213 218 222 226 232 239 246 255 264 269 272 271 271 273 275 274 272 276 278 280 282 285 285 289 294 299 298 298 301 303 302 299 297 297 296 298 302 307 313
206 207 212 217 221 223 227 233 240 246 253 264 268 267 263 266 268 272 269 265 263 259 265 273 274 278 283 290 290 292 297 301 303 301 299 298 296 295 296 299 299 303
214 216 220 222 223 226 230 235 242 247 254 262 264 263 260 258 263 266 269 268 270 268 262 262 265 267 281 293 293 293 295 296 295 296 297 300 299 297 nan nan 296 298
214 218 225 227 226 226 230 235 241 248 255 260 260 258 257 252 251 258 263 250 256 266 268 263 262 266 283 288 291 294 294 296 298 298 297 297 296 298 297 295 nan nan
212 218 227 232 231 230 231 235 240 248 255 257 256 253 248 250 260 270 262 259 258 264 268 265 263 274 285 287 293 297 298 297 298 299 300 299 299 298 297 nan nan nan
210 216 226 234 236 234 232 234 241 248 251 253 255 248 243 254 263 261 264 264 269 271 266 263 266 278 283 286 290 295 299 298 298 299 300 299 299 298 nan nan nan nan
205 207 219 230 237 237 234 235 241 246 248 250 251 248 247 251 258 262 262 267 270 269 268 267 269 274 280 284 289 295 298 296 297 300 299 299 298 nan nan nan nan nan
204 199 211 225 236 239 236 235 237 240 248 251 253 254 252 250 258 259 257 261 265 267 269 269 268 276 279 284 289 296 300 296 294 292 292 292 nan nan nan nan nan nan
214 203 207 221 235 240 238 235 236 242 251 248 245 245 243 245 249 258 266 264 262 267 268 270 270 277 279 284 289 295 296 nan nan nan nan nan nan nan nan nan nan nan
225 212 205 217 233 240 237 236 238 241 242 243 248 248 253 254 254 253 260 265 263 261 267 272 274 279 281 282 287 291 287 nan nan nan nan nan nan nan nan nan nan nan
228 220 209 215 229 236 235 234 234 236 242 241 248 250 251 249 254 256 260 264 267 268 273 276 276 275 280 280 285 293 288 nan nan nan nan nan nan nan nan nan nan nan
228 218 207 211 225 229 234 239 239 240 238 235 236 243 248 250 248 256 263 261 264 270 277 278 277 272 276 281 286 291 nan 285 nan nan nan nan nan nan nan nan nan nan
222 213 200 208 226 231 235 238 235 237 238 235 233 236 245 246 250 258 263 260 261 268 270 273 274 271 278 285 nan nan 290 287 nan nan nan nan nan nan nan nan nan nan